This is the latest recevied weather packets stored in our database for station/object KC5TIL-3. If no packets are shown the sender has not sent any weather packets the latest 10 day(s).
| Time | Temp. | Humidity | Pressure | Rain* | Wind** | Luminosity | Snow |
|---|---|---|---|---|---|---|---|
| 1777857557 | 23.33° C | 16% | 1012.8 hPa | 0 mm | 2.24 m/s, 138° | - | - |
| 1777856361 | 23.89° C | 15% | 1012.8 hPa | 0 mm | 2.24 m/s, 217° | - | - |
| 1777855458 | 24.44° C | 15% | 1012.8 hPa | 0 mm | 3.13 m/s, 226° | - | - |
| 1777854560 | 25° C | 15% | 1012.8 hPa | 0 mm | 3.13 m/s, 146° | - | - |
| 1777853961 | 25.56° C | 15% | 1012.8 hPa | 0 mm | 2.24 m/s, 161° | - | - |
| 1777853663 | 25.56° C | 13% | 1012.8 hPa | 0 mm | 2.68 m/s, 200° | - | - |
| 1777852751 | 25.56° C | 12% | 1012.8 hPa | 0 mm | 4.47 m/s, 162° | - | - |
| 1777852449 | 26.11° C | 15% | 1012.8 hPa | 0 mm | 3.58 m/s, 134° | - | - |
| 1777851849 | 26.11° C | 15% | 1012.8 hPa | 0 mm | 3.13 m/s, 200° | - | - |
| 1777851547 | 26.11° C | 15% | 1012.8 hPa | 0 mm | 4.02 m/s, 121° | - | - |
| 1777850650 | 26.11° C | 15% | 1012.8 hPa | 0 mm | 3.13 m/s, 221° | - | - |
| 1777850053 | 26.11° C | 15% | 1012.8 hPa | 0 mm | 3.58 m/s, 202° | - | - |
| 1777849747 | 26.67° C | 14% | 1012.8 hPa | 0 mm | 2.68 m/s, 233° | - | - |
| 1777849151 | 26.67° C | 14% | 1013.8 hPa | 0 mm | 3.13 m/s, 148° | - | - |
| 1777848845 | 26.67° C | 14% | 1013.8 hPa | 0 mm | 4.47 m/s, 182° | - | - |
| 1777847948 | 26.67° C | 14% | 1013.8 hPa | 0 mm | 3.58 m/s, 149° | - | - |
| 1777847650 | 26.67° C | 12% | 1013.8 hPa | 0 mm | 4.02 m/s, 225° | - | - |
| 1777847347 | 26.67° C | 12% | 1013.8 hPa | 0 mm | 2.68 m/s, 200° | - | - |
| 1777847045 | 26.11° C | 12% | 1013.8 hPa | 0 mm | 5.81 m/s, 215° | - | - |
| 1777846143 | 26.11° C | 14% | 1013.8 hPa | 0 mm | 3.58 m/s, 218° | - | - |
| 1777845546 | 26.67° C | 14% | 1013.8 hPa | 0 mm | 3.13 m/s, 156° | - | - |
| 1777845245 | 26.67° C | 14% | 1013.8 hPa | 0 mm | 3.58 m/s, 201° | - | - |
| 1777844649 | 26.67° C | 14% | 1014.8 hPa | 0 mm | 3.58 m/s, 180° | - | - |
| 1777844343 | 26.11° C | 14% | 1014.8 hPa | 0 mm | 4.02 m/s, 129° | - | - |
| 1777844041 | 26.67° C | 14% | 1014.8 hPa | 0 mm | 4.47 m/s, 198° | - | - |
* Rain latest hour (hover to see other rain measurements)
** Current wind speed in m/s (hover to see current wind gust speed)